Weather History for EGOS - October, 2012

Change the Weather History Date:

Monday, October 8, 2012

  Actual Average Record
Temperature  
Mean Temperature 47 °F -  
Max Temperature 54 °F 52 °F 67 °F (2013)
Min Temperature 40 °F 41 °F 39 °F (2000)
Degree Days  
Heating Degree Days 18    
Moisture  
Dew Point 47 °F    
Average Humidity 93    
Maximum Humidity 100    
Minimum Humidity 86    
Precipitation  
Precipitation 0.08 in - - ()
Sea Level Pressure  
Sea Level Pressure 29.98 in    
Wind  
Wind Speed 5 mph ()    
Max Wind Speed 8 mph    
Max Gust Speed -    
Visibility 2.8 miles    
Events Fog , Rain    
Averages and records for this station are not official NWS values.
T = Trace of Precipitation, MM = Missing Value Source: Averaged Metar Reports

Daily Weather History Graph

Daily Weather History Graph

Search for Another Location

Airport or City:

Trip Planner

Search our weather history database for the weather conditions in past years. The results will help you decide how hot, cold, wet, or windy it might be!

Date:

Astronomy

Oct. 08, 2012 Rise Set
Actual Time 7:24 AM BST 6:30 PM BST
Civil Twilight 6:50 AM BST 7:04 PM BST
Nautical Twilight 6:10 AM BST 7:44 PM BST
Astronomical Twilight 5:30 AM BST 8:24 PM BST
Moon No Moon Rise 3:00 PM BST (10/8)
Length of Visible Light 12h 14m
Length of Day
11h 05m
Waning Gibbous, 48% of the Moon is Illuminated
Oct 8
Waning Gibbous
Oct 15
New
Oct 22
First Quarter
Oct 29
Full
Nov 7
Last Quarter

Hourly Weather History & Observations

Time (BST) Temp. Windchill Dew Point Humidity Pressure Visibility Wind Dir Wind Speed Gust Speed Precip Events Conditions
12:50 AM 44 °F - 42 °F 90% 30.13 in 6 mi East 5.8 mph - -   Mist
12:50 AM 44.6 °F 41.4 °F 42.8 °F 93% 30.09 in 5.6 mi East 5.8 mph - N/A   Haze
1:50 AM 42.8 °F - 41.0 °F 93% 30.09 in 4.3 mi NE 2.3 mph - N/A   Mostly Cloudy
2:50 AM 44.6 °F 42.2 °F 42.8 °F 93% 30.06 in 3.7 mi ENE 4.6 mph - N/A   Mostly Cloudy
3:50 AM 46 °F - 44 °F 92% 30.07 in 4 mi East 3.5 mph - -   Mist
3:50 AM 46.4 °F 45.2 °F 44.6 °F 93% 30.06 in 3.7 mi East 3.5 mph - N/A   Mostly Cloudy
4:50 AM 46.4 °F 44.3 °F 44.6 °F 93% 30.04 in 3.1 mi East 4.6 mph - N/A   Overcast
5:50 AM 46.4 °F 44.3 °F 44.6 °F 93% 30.01 in 3.7 mi ENE 4.6 mph - N/A   Haze
6:50 AM 47 °F - 45 °F 92% 30.01 in 2 mi ENE 5.8 mph - -   Haze
6:50 AM 48.2 °F - 44.6 °F 87% 30.01 in 3.7 mi ENE 5.8 mph - N/A   Haze
7:50 AM 48.2 °F - 46.4 °F 93% 29.98 in 2.5 mi ENE 5.8 mph - N/A   Haze
8:50 AM 48.2 °F - 46.4 °F 93% 29.98 in 2.5 mi East 5.8 mph - N/A Rain Light Rain
9:19 AM 48.2 °F - 46.4 °F 93% 29.98 in 1.9 mi East 5.8 mph - N/A Rain Light Rain
9:35 AM 48.2 °F - 48.2 °F 100% 29.98 in 1.6 mi ESE 5.8 mph - N/A Rain Light Rain
9:50 AM 49 °F - 48 °F 95% 29.99 in 1 mi ESE 5.8 mph - - Rain Heavy Rain
9:50 AM 50.0 °F - 48.2 °F 94% 29.98 in 1.4 mi ESE 5.8 mph - N/A Rain Rain
10:07 AM 50.0 °F - 48.2 °F 94% 29.98 in - SE 6.9 mph - N/A   Overcast
10:50 AM 50.0 °F - 48.2 °F 94% 29.95 in - East 6.9 mph - N/A Rain Light Rain
11:08 AM 51.8 °F - 48.2 °F 88% 29.95 in 3.1 mi ESE 5.8 mph - N/A Rain Light Rain
11:50 AM 51.8 °F - 50.0 °F 94% 29.95 in 3.1 mi East 4.6 mph - N/A Rain Light Rain
12:11 PM 51.8 °F - 50.0 °F 94% 29.95 in - NE 4.6 mph - N/A Rain Rain
12:46 PM 51.8 °F - 50.0 °F 94% 29.95 in - NE 8.1 mph - N/A Rain Rain
12:50 PM 52 °F - 50 °F 91% 29.96 in 2 mi NE 8.1 mph - - Rain Rain
12:50 PM 51.8 °F - 50.0 °F 94% 29.95 in - NE 8.1 mph - N/A Rain Rain
1:33 PM 51.8 °F - 50.0 °F 94% 29.92 in 3.1 mi ENE 6.9 mph - N/A Rain Light Rain
1:50 PM 51.8 °F - 50.0 °F 94% 29.92 in 3.1 mi ENE 4.6 mph - N/A Rain Light Rain
2:50 PM 53.6 °F - 50.0 °F 88% 29.92 in 4.3 mi East 8.1 mph - N/A   Haze
3:41 PM 53.6 °F - 50.0 °F 88% 29.92 in 4.3 mi ENE 6.9 mph - N/A Rain Light Rain
3:50 PM 54 °F - 51 °F 86% 29.93 in 2 mi East 4.6 mph - - Rain Light Rain
3:50 PM 55.4 °F - 51.8 °F 88% 29.92 in 4.3 mi East 4.6 mph - N/A Rain Light Rain
4:07 PM 55.4 °F - 51.8 °F 88% 29.92 in 4.3 mi East 5.8 mph - N/A   Haze
4:50 PM 53.6 °F - 50.0 °F 88% 29.89 in 4.3 mi ESE 5.8 mph - N/A   Haze
5:50 PM 53.6 °F - 50.0 °F 88% 29.92 in 3.7 mi NE 3.5 mph - N/A   Haze
6:50 PM 51 °F - 49 °F 92% 29.95 in 2 mi North 1.2 mph - -   Light Haze
6:50 PM 50.0 °F - 50.0 °F 100% 29.92 in 1.7 mi North 1.2 mph - N/A   Mostly Cloudy
7:50 PM 48.2 °F - 48.2 °F 100% 29.95 in 1.5 mi North 4.6 mph - N/A   Mostly Cloudy
8:50 PM 48.2 °F - 46.4 °F 93% 29.95 in 1.3 mi NNW 2.3 mph - N/A   Partly Cloudy
9:50 PM 45 °F - 45 °F 98% 29.97 in 0 mi NNW 2.3 mph - - Fog Fog
9:50 PM 44.6 °F - 44.6 °F 100% 29.95 in 0.1 mi NNW 2.3 mph - N/A Fog Fog
10:50 PM 42.8 °F - 42.8 °F 100% 29.98 in 0.1 mi Calm Calm - N/A Fog Fog
11:50 PM 44.6 °F 43.1 °F 44.6 °F 100% 29.98 in 0.5 mi North 3.5 mph - N/A Fog Fog